Temperature
17 17 17 18 18 18 18 18 18 18 18 18 18 18 18 18 17 17 17 17 17 17 18 18 17 18 18 17 17 17 17 17 17 17 17 17 17 17 18 18 18 18 18
17 17 18 18 18 18 18 18 18 18 18 18 18 18 17 17 17 17 17 17 17 17 17 17 17 17 17 17 17 17 17 17 17 17 17 17 17 17 17 18 17 17 17
18 17 18 18 17 17 18 18 18 18 18 18 18 17 17 17 17 17 17 17 17 17 17 17 17 17 17 17 17 17 17 17 17 17 17 17 17 17 17 17 17 17 17
17 17 17 17 17 17 17 17 17 18 18 18 17 17 17 17 17 17 17 17 17 17 17 17 17 17 17 17 17 17 17 17 17 17 17 17 17 17 17 17 17 17 17
17 17 17 17 17 17 17 17 17 17 17 17 17 17 17 17 17 17 17 17 17 17 17 17 17 17 17 17 17 17 17 17 17 17 17 17 17 17 17 17 17 17 17
17 17 17 17 17 17 17 17 17 17 17 17 17 17 17 17 17 17 17 17 17 17 17 17 17 17 16 16 16 16 16 17 16 17 17 17 17 17 17 17 17 17 16
17 17 17 17 17 17 17 17 17 17 17 17 17 17 17 17 17 17 17 17 17 17 16 16 16 16 16 16 16 16 16 16 17 16 17 17 16 16 16 17 16 17 16
17 17 17 17 17 17 17 17 17 16 17 17 16 16 17 16 16 16 16 16 16 16 16 16 16 16 16 16 16 16 16 16 16 16 16 16 16 16 16 16 16 16 16
17 17 17 17 17 17 16 16 16 16 16 16 17 16 16 16 16 16 16 16 16 16 16 16 16 16 16 16 16 16 16 16 16 16 16 16 16 16 16 16 16 16 16
17 17 17 17 17 17 16 16 16 16 16 16 16 16 16 16 16 16 16 16 16 16 16 16 16 16 16 16 16 16 16 16 16 16 16 16 16 16 16 16 16 16 16
17 17 17 17 17 17 16 16 16 16 16 16 16 16 16 16 16 16 16 16 16 16 16 16 16 16 16 16 16 16 16 16 16 16 16 16 16 16 16 16 16 16 16
17 17 17 17 17 17 16 16 16 16 16 16 16 16 16 16 16 16 16 16 16 16 16 16 16 16 16 16 16 16 16 16 16 16 16 16 16 15 15 15 15 16 16
17 17 17 17 17 16 16 16 16 16 16 16 16 16 16 16 16 16 16 16 16 16 16 16 16 15 15 15 15 15 15 16 16 15 15 15 15 15 15 15 15 15 15
17 17 17 17 17 16 16 16 16 16 16 16 15 15 15 16 16 16 16 15 15 16 16 16 16 15 15 15 15 15 15 15 15 15 15 15 15 15 15 15 15 15 15
17 17 17 16 16 16 16 16 16 16 16 15 15 15 15 15 15 15 15 15 15 15 15 15 15 15 15 15 15 15 15 15 15 15 15 15 15 15 15 15 15 15 15
17 17 17 16 16 16 16 16 16 16 15 15 15 15 15 15 15 15 15 15 15 15 15 15 15 15 15 15 15 15 15 15 15 15 15 15 15 15 15 15 14 14 14
17 17 17 17 16 16 16 16 16 15 15 15 15 15 15 15 15 15 15 15 15 15 15 15 15 15 15 15 15 15 15 15 15 15 14 14 14 14 14 14 14 14 14
17 17 17 17 16 16 16 16 16 15 15 15 15 15 15 15 15 15 15 15 15 15 15 15 15 15 15 15 15 15 15 14 14 14 14 14 14 14 14 14 14 14 14
17 17 17 16 16 16 16 16 16 15 15 15 15 15 15 15 15 15 15 15 15 15 15 15 15 15 15 15 14 14 14 14 14 14 14 14 14 14 14 14 14 13 13
17 17 17 16 16 16 16 16 15 15 15 15 15 15 15 15 15 15 14 14 14 14 14 14 14 14 14 14 14 14 14 14 14 14 14 14 13 13 13 13 13 13 13
17 17 17 16 16 16 16 16 15 15 15 15 15 15 15 15 14 14 14 14 14 14 14 14 14 14 14 14 14 14 14 14 14 13 13 13 13 13 13 13 13 13 13
17 17 17 16 16 16 16 16 15 15 15 15 15 15 15 14 14 14 14 14 14 14 14 14 14 14 14 14 14 14 13 13 13 13 13 13 13 13 13 13 13 13 13
17 17 16 16 16 16 16 15 15 15 15 15 14 14 14 14 14 14 14 14 14 14 14 14 13 13 13 13 13 13 13 13 13 13 13 13 13 13 13 13 13 13 13
17 17 16 16 16 16 16 15 15 15 15 15 14 14 14 14 14 14 14 14 14 13 13 13 13 13 13 13 13 13 13 13 12 12 13 13 13 12 12 12 13 13 12
17 16 16 16 16 15 15 15 15 15 15 15 14 14 14 14 14 14 14 14 13 13 13 13 13 13 13 13 13 13 13 12 12 12 12 12 12 12 12 12 12 12 12
16 16 16 16 16 15 15 15 15 15 15 15 14 14 14 14 14 14 14 13 13 13 13 13 13 13 13 13 13 12 12 12 12 12 12 12 12 12 12 12 12 12 12
Wind_Speed
0 2 7 8 9 10 10 10 10 11 11 11 11 11 12 12 12 13 12 12 13 13 13 12 12 12 12 12 11 10 10 10 10 10 9 9 8 8 7 6 6 6 7
4 4 7 8 9 9 10 10 11 11 11 11 11 11 11 12 12 12 12 12 12 12 12 12 12 12 12 11 11 10 10 10 10 10 10 9 8 8 7 6 6 6 7
6 6 7 8 8 9 10 10 11 11 11 11 11 11 11 12 12 12 12 12 12 12 13 13 13 12 12 11 11 11 11 11 10 10 9 7 7 8 9 8 7 7 7
7 7 7 9 9 9 10 10 11 11 11 11 12 12 12 12 12 12 12 12 12 13 13 12 12 12 12 12 12 11 11 11 11 10 8 7 7 9 10 10 10 9 9
7 7 8 9 9 10 10 10 11 11 11 11 12 12 12 12 12 12 12 12 12 12 12 11 11 11 12 12 12 12 12 12 12 10 9 8 7 10 10 10 10 10 9
6 7 8 9 10 10 10 10 11 11 11 11 12 12 11 11 11 11 12 12 12 12 11 11 10 10 10 11 12 12 12 11 10 9 8 7 7 9 10 10 10 9 9
6 7 8 9 10 10 10 10 10 10 11 11 11 11 10 11 11 11 11 11 11 11 11 10 10 9 9 10 10 11 12 11 8 7 6 6 7 9 9 9 9 9 8
7 6 7 9 9 9 10 10 10 10 10 10 10 10 10 10 10 10 10 10 10 10 10 9 9 9 9 9 10 10 10 10 8 6 5 5 7 9 9 9 9 8 8
7 6 5 6 7 8 9 9 9 9 8 8 9 9 9 9 10 10 10 9 10 10 10 9 8 8 8 9 10 10 10 10 7 5 5 4 7 9 9 9 9 8 9
6 5 5 5 5 6 7 8 8 8 8 8 8 9 8 8 8 8 8 8 9 10 10 9 8 8 9 9 10 10 10 9 8 6 4 6 8 9 9 9 9 9 9
5 3 4 4 4 5 6 6 7 7 8 8 7 8 7 6 6 6 7 8 9 9 9 8 8 8 9 9 9 10 9 7 6 5 5 7 8 8 8 9 9 9 9
5 3 3 4 4 4 4 5 4 5 6 6 6 6 6 6 5 5 6 6 7 7 7 7 7 7 7 6 7 8 7 7 6 5 6 7 7 8 8 8 9 9 9
6 5 4 3 4 4 3 4 3 4 5 5 6 6 6 6 5 5 5 5 6 6 6 6 7 6 5 4 4 6 6 6 5 4 5 7 7 7 7 7 8 8 9
5 5 4 4 4 3 4 3 3 3 3 3 4 5 5 4 3 3 3 4 4 4 4 5 5 5 5 5 5 6 6 5 5 4 4 6 7 6 6 8 8 8 7
5 5 4 4 4 3 3 2 3 2 2 2 3 4 5 4 2 2 3 4 4 4 4 3 4 4 4 5 5 5 5 5 5 4 4 6 7 7 7 7 8 8 8
6 5 4 5 4 4 3 2 2 3 3 3 3 3 5 5 3 3 3 3 4 4 4 4 4 3 3 3 4 4 4 4 5 5 4 5 7 7 7 7 7 7 7
7 6 5 5 4 4 4 3 3 3 4 3 3 4 5 5 4 4 3 2 2 4 4 4 4 4 3 3 3 3 3 3 4 4 4 4 4 5 6 6 6 6 6
7 6 5 5 5 4 3 3 3 3 4 3 4 5 5 5 5 4 2 2 3 4 4 3 3 3 3 3 2 2 2 3 3 3 3 4 4 4 4 4 5 5 5
7 7 6 5 5 4 3 3 3 3 4 4 4 4 5 6 6 5 3 2 3 3 3 2 3 2 2 2 2 2 2 2 2 3 4 4 4 4 3 3 3 4 4
6 6 6 5 4 4 3 2 2 2 2 3 3 3 5 5 6 6 4 3 4 3 3 2 2 2 1 1 2 3 2 2 2 2 2 3 4 4 3 3 3 3 3
4 5 5 5 4 4 3 2 2 1 0 0 1 3 4 5 6 5 4 3 3 2 2 2 2 3 2 2 3 3 4 3 3 2 2 2 3 3 3 3 3 3 3
4 4 5 5 5 4 3 3 3 2 1 1 0 2 3 4 4 5 4 3 2 2 3 2 2 2 1 2 2 2 3 4 3 3 2 2 2 2 3 3 2 2 2
4 4 4 5 5 5 4 2 2 2 2 2 0 0 0 2 3 4 4 3 3 2 2 1 2 2 1 1 1 2 2 1 2 3 2 2 2 2 2 2 2 2 2
4 4 3 4 5 5 5 4 4 3 2 2 2 1 1 2 2 3 4 4 3 2 2 1 1 1 2 1 1 1 1 2 1 2 3 3 3 2 2 1 1 1 1
4 4 3 3 3 3 4 5 5 3 3 1 1 1 1 0 1 2 3 3 3 2 2 1 2 2 1 1 1 0 1 1 1 2 2 4 3 3 2 1 0 1 1
3 3 3 3 3 2 3 5 5 5 4 3 2 2 1 1 1 1 2 3 3 2 2 2 2 2 1 1 1 1 1 1 1 1 1 2 3 3 3 2 1 1 1
Wind_Direction
81 81 90 86 84 81 79 78 77 75 73 72 72 75 76 76 75 75 73 74 76 77 77 78 78 77 75 78 80 81 81 81 81 80 75 69 67 66 69 78 82 82 91
147 107 96 91 88 85 83 82 81 77 74 73 74 78 79 78 75 75 75 76 78 79 77 77 79 76 73 74 75 78 79 80 79 75 68 62 62 62 61 79 90 95 93
123 108 99 93 91 91 87 85 84 80 77 76 77 80 81 80 77 76 75 77 79 80 80 79 77 73 70 68 70 75 79 79 78 73 61 53 61 61 60 71 78 98 100
122 113 107 101 97 94 91 89 87 85 82 79 81 83 82 81 79 77 77 77 79 80 81 78 75 72 69 66 67 73 78 78 77 69 55 48 55 64 64 68 71 92 95
121 118 114 108 104 100 97 93 91 89 87 84 85 86 85 83 82 80 79 79 80 81 81 78 75 73 71 68 68 72 77 77 75 68 59 52 54 66 68 72 73 76 80
126 125 122 115 110 107 102 97 94 92 91 89 87 88 87 85 85 84 83 81 81 83 82 78 75 72 72 69 69 74 78 78 74 69 61 55 56 70 71 73 76 73 72
136 134 131 123 117 114 109 103 98 96 94 93 91 90 89 88 87 86 85 82 81 81 80 79 75 71 69 67 67 73 76 77 74 67 63 60 64 71 72 73 74 72 68
140 137 133 130 124 118 113 106 101 97 93 92 91 88 86 87 88 86 86 82 81 80 77 76 73 69 65 61 63 73 73 71 69 63 58 57 70 73 74 72 69 67 67
122 123 121 125 124 119 111 107 103 97 93 93 90 86 87 87 86 84 83 81 80 77 75 72 68 67 63 60 62 68 70 68 64 61 67 64 74 77 74 68 66 63 62
114 115 115 111 112 113 111 105 101 93 89 85 84 83 83 82 80 80 79 80 81 78 73 69 64 61 61 61 62 62 67 66 62 64 67 77 82 79 73 66 63 64 63
112 111 113 110 106 112 113 109 105 95 88 83 79 78 74 66 62 65 72 77 78 78 74 67 59 55 55 56 60 60 60 60 65 64 66 80 81 77 72 66 64 63 64
131 128 122 119 116 110 108 96 92 87 83 76 71 72 69 64 56 59 61 64 67 70 68 60 50 47 44 44 50 54 60 58 62 61 68 75 77 73 69 65 64 62 63
150 141 135 132 125 116 99 100 86 80 82 79 73 74 73 64 53 48 49 41 40 46 44 39 39 41 42 44 55 61 62 64 64 59 65 64 69 72 69 64 63 63 61
135 138 139 136 126 119 109 106 99 86 84 88 90 90 85 75 64 53 55 49 42 39 43 42 48 48 55 57 69 69 61 61 63 57 64 62 60 62 70 69 67 65 61
142 150 148 140 135 126 115 110 109 104 110 112 102 103 108 100 98 76 63 56 50 49 56 54 51 56 63 66 71 73 65 64 65 60 57 62 60 60 70 73 69 68 63
155 157 156 150 143 130 126 120 120 117 119 109 104 110 112 113 107 89 73 63 55 54 61 67 62 63 64 70 66 69 70 69 73 68 58 54 57 59 62 68 65 62 64
160 154 153 158 143 132 135 134 118 110 109 103 109 114 111 112 109 97 87 70 62 63 60 59 54 57 60 56 44 54 70 72 72 74 70 56 47 50 57 64 64 62 62
154 151 159 157 146 143 131 124 111 105 104 101 105 111 110 112 114 102 94 74 69 71 67 59 46 51 46 45 34 27 42 60 65 70 71 60 51 43 43 53 58 55 59
161 157 157 152 149 153 141 122 115 108 101 98 99 99 101 105 115 109 107 95 86 73 61 58 52 68 60 43 39 37 28 39 51 66 60 53 49 44 35 30 43 47 47
157 153 150 147 152 149 133 104 89 88 76 83 96 96 101 105 110 107 103 95 88 71 52 46 54 45 55 42 52 36 16 18 40 52 55 54 44 35 38 36 30 20 17
138 143 145 148 156 147 143 141 131 140 135 83 97 104 112 114 112 108 109 100 90 82 79 67 67 58 36 40 55 15 360 14 33 28 37 43 31 21 26 29 28 18 4
143 149 154 160 163 164 172 173 164 157 162 165 106 99 117 121 122 123 121 118 111 93 76 69 73 71 26 44 96 72 8 355 357 5 8 16 5 10 11 12 21 18 24
150 154 168 178 172 168 157 132 104 75 53 46 41 240 183 136 124 122 124 127 126 122 118 104 102 102 81 360 73 125 128 239 310 333 344 353 352 357 342 358 21 6 18
167 157 141 168 175 172 154 147 146 148 164 203 201 211 224 135 136 134 134 131 134 128 127 139 107 108 116 53 350 46 154 159 144 323 329 338 339 334 324 344 8 6 1
150 142 140 132 161 175 163 164 163 163 179 184 160 153 186 199 152 151 147 139 139 144 144 125 99 95 112 132 139 99 74 63 104 144 290 321 335 324 312 295 272 324 349
123 123 128 130 149 162 167 169 169 168 166 148 152 171 203 235 238 197 160 152 152 149 148 153 146 131 126 117 114 116 136 134 176 153 203 297 312 310 317 310 296 282 293
Height
1533 1532 1531 1530 1530 1529 1528 1527 1526 1526 1525 1524 1523 1522 1522 1521 1521 1520 1520 1519 1518 1517 1517 1517 1517 1517 1517 1517 1517 1517 1517 1517 1517 1517 1517 1517 1516 1516 1515 1514 1514 1514 1514
1533 1532 1532 1531 1530 1529 1529 1528 1527 1526 1525 1524 1523 1523 1522 1522 1522 1521 1521 1520 1520 1519 1518 1518 1518 1518 1518 1518 1518 1518 1518 1518 1518 1518 1517 1517 1517 1516 1514 1513 1512 1513 1514
1533 1533 1532 1531 1531 1530 1530 1529 1528 1527 1526 1525 1524 1524 1523 1523 1523 1522 1522 1522 1521 1521 1520 1520 1520 1520 1520 1519 1519 1519 1519 1518 1518 1518 1518 1518 1517 1516 1514 1512 1510 1509 1512
1534 1533 1533 1532 1532 1531 1531 1530 1529 1528 1527 1526 1526 1525 1525 1524 1524 1523 1523 1523 1523 1522 1522 1522 1522 1521 1521 1521 1521 1520 1520 1520 1519 1519 1519 1518 1517 1516 1515 1513 1510 1509 1513
1534 1534 1534 1533 1533 1532 1532 1531 1530 1529 1529 1528 1527 1527 1526 1526 1525 1525 1525 1524 1524 1524 1524 1523 1523 1523 1523 1522 1522 1521 1521 1521 1520 1520 1520 1519 1518 1517 1516 1515 1514 1513 1514
1535 1535 1535 1534 1534 1533 1533 1532 1531 1531 1530 1529 1529 1528 1528 1527 1527 1527 1526 1526 1526 1525 1525 1525 1525 1525 1524 1524 1523 1523 1522 1522 1522 1521 1521 1520 1519 1518 1518 1517 1516 1516 1516
1536 1536 1535 1535 1535 1534 1534 1533 1533 1532 1531 1531 1530 1530 1530 1529 1529 1528 1528 1528 1527 1527 1527 1527 1526 1526 1526 1525 1525 1524 1524 1523 1523 1522 1522 1521 1520 1519 1519 1518 1517 1517 1517
1536 1536 1536 1536 1536 1535 1535 1534 1534 1534 1533 1532 1532 1532 1531 1531 1530 1530 1530 1530 1529 1529 1529 1528 1528 1528 1527 1527 1526 1526 1525 1525 1524 1523 1523 1522 1521 1520 1520 1519 1519 1518 1517
1537 1537 1537 1537 1537 1536 1536 1535 1535 1535 1534 1534 1533 1533 1533 1532 1532 1532 1531 1531 1531 1530 1530 1530 1530 1529 1529 1528 1528 1527 1527 1526 1525 1524 1523 1523 1522 1521 1521 1520 1519 1519 1518
1538 1538 1538 1538 1537 1537 1537 1536 1536 1536 1535 1535 1534 1534 1534 1534 1533 1533 1533 1533 1532 1532 1532 1531 1531 1530 1530 1529 1529 1528 1528 1527 1526 1525 1524 1524 1523 1522 1521 1521 1520 1519 1518
1539 1539 1539 1538 1538 1538 1538 1537 1537 1537 1536 1536 1536 1535 1535 1535 1535 1534 1534 1534 1533 1533 1533 1532 1532 1532 1531 1530 1530 1529 1529 1528 1527 1526 1525 1525 1524 1523 1522 1522 1521 1520 1519
1539 1539 1539 1539 1539 1539 1538 1538 1538 1537 1537 1537 1536 1536 1536 1536 1536 1536 1535 1535 1535 1534 1534 1534 1533 1533 1532 1531 1531 1530 1530 1529 1528 1527 1526 1526 1525 1524 1523 1523 1522 1521 1520
1539 1539 1539 1539 1539 1539 1539 1538 1538 1538 1537 1537 1537 1537 1537 1537 1537 1537 1536 1536 1536 1535 1535 1535 1534 1534 1533 1533 1532 1532 1531 1530 1529 1528 1527 1526 1525 1524 1524 1523 1523 1522 1521
1539 1539 1539 1540 1539 1539 1539 1539 1539 1538 1538 1538 1538 1538 1538 1537 1537 1537 1537 1537 1537 1536 1536 1536 1535 1535 1534 1534 1533 1532 1532 1531 1530 1529 1528 1527 1526 1525 1524 1524 1523 1522 1522
1538 1539 1539 1539 1539 1539 1539 1539 1539 1539 1538 1538 1538 1538 1538 1538 1538 1538 1538 1538 1537 1537 1537 1536 1536 1536 1535 1535 1534 1533 1533 1532 1531 1530 1529 1528 1527 1526 1525 1524 1524 1523 1522
1538 1538 1539 1539 1539 1539 1539 1539 1539 1539 1539 1539 1539 1539 1539 1539 1539 1538 1538 1538 1538 1538 1537 1537 1537 1536 1536 1535 1535 1534 1533 1533 1532 1531 1530 1529 1528 1527 1526 1525 1524 1524 1523
1537 1538 1538 1539 1539 1539 1539 1539 1539 1539 1539 1539 1539 1539 1539 1539 1539 1539 1538 1538 1538 1538 1538 1538 1537 1537 1536 1536 1535 1535 1534 1533 1532 1532 1531 1530 1529 1528 1527 1525 1525 1524 1523
1537 1537 1538 1538 1539 1539 1539 1539 1539 1539 1539 1539 1539 1540 1540 1540 1539 1539 1539 1538 1538 1538 1538 1538 1537 1537 1536 1536 1536 1535 1535 1534 1533 1532 1531 1531 1529 1528 1527 1526 1525 1524 1523
1536 1537 1537 1538 1538 1538 1539 1539 1539 1540 1540 1540 1540 1540 1540 1540 1539 1539 1539 1539 1538 1538 1538 1538 1537 1537 1536 1536 1536 1535 1535 1534 1534 1533 1532 1531 1530 1529 1528 1527 1525 1524 1523
1535 1536 1537 1537 1537 1538 1538 1538 1539 1539 1539 1539 1540 1540 1540 1540 1539 1539 1539 1539 1538 1538 1538 1537 1537 1537 1536 1536 1535 1535 1535 1534 1534 1533 1533 1532 1531 1530 1529 1527 1525 1524 1522
1535 1535 1536 1536 1537 1537 1537 1537 1538 1538 1539 1539 1539 1539 1540 1540 1539 1539 1539 1538 1538 1538 1537 1537 1537 1536 1536 1536 1535 1535 1535 1534 1534 1534 1533 1532 1531 1530 1529 1528 1526 1523 1521
1533 1534 1534 1535 1535 1536 1536 1537 1537 1537 1538 1538 1539 1539 1539 1539 1539 1539 1538 1538 1538 1537 1537 1537 1536 1536 1535 1535 1535 1534 1534 1535 1534 1534 1533 1532 1532 1531 1529 1528 1526 1524 1522
1532 1532 1533 1533 1534 1534 1535 1536 1536 1537 1537 1537 1537 1538 1538 1538 1538 1538 1538 1537 1537 1537 1536 1536 1536 1535 1535 1535 1535 1535 1535 1534 1533 1534 1533 1532 1531 1530 1529 1528 1527 1525 1524
1530 1531 1532 1532 1533 1533 1534 1534 1535 1535 1535 1535 1536 1536 1537 1537 1537 1537 1537 1537 1536 1536 1536 1535 1535 1535 1535 1535 1534 1534 1535 1534 1534 1533 1532 1532 1531 1530 1529 1528 1527 1526 1525
1529 1529 1530 1531 1531 1532 1532 1533 1533 1533 1534 1534 1535 1535 1535 1536 1536 1536 1535 1535 1535 1535 1535 1535 1534 1534 1534 1534 1534 1533 1533 1533 1533 1532 1531 1530 1530 1529 1528 1527 1527 1526 1525
1528 1528 1529 1529 1529 1530 1530 1531 1532 1532 1532 1533 1533 1533 1534 1534 1534 1534 1534 1534 1534 1534 1534 1533 1533 1533 1533 1533 1533 1532 1532 1532 1532 1531 1530 1529 1528 1528 1527 1527 1526 1525 1525